Weather in Cheremushskiy

Russia / Arkhangel'skaya Oblast'     61°16′15″N   47°15′49″E
temp.,
°C
wind,
m/s
gust,
m/s
humid.,
%
clouds,
%
prec.,
mm/h
press.,
hPa
HPBL,
m
30 november, tue
tue3000:00−12ene4119289 0.0 1011280
03:00−11ene51593100 0.1 1007372
06:00−9e6189399 0.3 1002513
09:00−7e71891100 0.5 996581
12:00−6e81994100 2.8 989718
15:00−2e71696100 6.1 983756
18:000ese51197100 2.1 979645
21:00+1se41198100 2.3 977473
1 december, wed
wed100:00+1sse41199100 0.6 977621
03:000s51295100 0.8 977925
06:00−1s6138574 0.1 978869
09:00−2s51196100 0.5 980965
12:00−3s51192100 0.5 9821005
15:00−3ssw5118993 0.8 983796
18:00−4s4109486 0.5 985742
21:00−4ssw399497 0.8 985563
2 december, thu
thu200:00−7s379687 0.1 986210
03:00−8ssw399585 0.1 987246
06:00−9ssw3995100 0.0 988254
09:00−8sw4994100 0.1 990358
12:00−7sw4993100 0.3 991507
15:00−8sw4109496 0.4 993565
18:00−10wsw51193100 0.1 995530
21:00−11wsw41193100 0.4 996513
3 december, fri
fri300:00−12wsw4119396 0.1 998468
03:00−12wsw3109589 0.2 999366
06:00−15sw279881 0.0 1001125
09:00−18sw2310086 0.1 100332
12:00−14wsw119891 0.0 100547
15:00−15ese119877 0.0 10069
18:00−17ese119974 0.0 100818
21:00−12ene2497100 0.1 1008102
4 december, sat
sat400:00−11ene3896100 0.1 1009203
03:00−10e41195100 0.3 1007319
06:00−10ene61594100 2.1 1003422
09:00−9ene61594100 5.0 1001494
12:00−9ene61494100 2.6 998454
15:00−9e4895100 5.1 998308
18:00−7wsw1897100 1.4 1000370
21:00−8wnw1497100 2.1 1003177